FW4070 Weather Reports


Display with metric or nautical units.
time (UTC)temp
F
wind
direction
speed
MPH
gust
MPH
rain 1hr
in
rain 24hr
in
rain mn
in
humidity
%
barometer
mb
20260831022017 67 197 0.0 0.0 0.00 0.08 0.08 93 1019.2
20260831021520 67 197 0.0 0.0 0.00 0.08 0.08 93 1019.1
20260831021010 67 197 0.0 0.0 0.00 0.08 0.08 93 1019.1
20260831020508 67 197 0.0 0.0 0.00 0.08 0.08 93 1019.2
20260831020014 67 197 0.0 0.0 0.01 0.08 0.08 93 1019.2
20260831015515 67 197 0.0 0.0 0.01 0.08 0.08 93 1019.2
20260831015029 67 197 0.0 0.0 0.01 0.08 0.08 93 1019.3
20260831014547 67 197 0.0 0.0 0.02 0.08 0.08 93 1019.5
20260831014032 67 197 0.0 0.0 0.02 0.08 0.08 93 1019.5
20260831013540 67 197 0.0 0.0 0.02 0.08 0.08 93 1019.5
20260831013055 67 197 0.0 0.0 0.02 0.08 0.08 93 1019.5
20260831012601 67 197 0.0 0.0 0.02 0.08 0.08 93 1019.5
20260831012504 67 197 0.0 0.0 0.02 0.08 0.08 93 1019.5
20260831012058 67 197 0.0 0.0 0.02 0.08 0.08 93 1019.4
20260831011507 67 198 0.0 0.0 0.02 0.08 0.08 93 1019.5
20260831011024 67 198 0.0 0.0 0.02 0.08 0.08 93 1019.5
20260831010527 67 198 0.0 0.0 0.02 0.08 0.08 93 1019.5
20260831010031 66 198 0.0 0.0 0.01 0.07 0.07 93 1019.5
20260831005517 66 198 0.0 0.0 0.01 0.07 0.07 93 1019.4
20260831005032 67 198 0.0 0.0 0.01 0.07 0.07 93 1019.2
20260831004536 67 198 0.0 0.0 0.00 0.06 0.07 92 1019.2
20260831004044 67 198 0.0 0.0 0.00 0.06 0.06 92 1019.0
20260831003548 67 198 0.0 0.0 0.00 0.06 0.06 92 1019.0
20260831003058 67 198 0.0 0.0 0.00 0.06 0.06 92 1018.9
20260831002505 67 198 0.0 0.0 0.00 0.06 0.06 92 1018.8
20260831002016 67 198 0.0 0.0 0.00 0.06 0.06 92 1018.7
20260831001511 67 198 0.0 0.0 0.00 0.06 0.06 92 1018.7
20260831001026 67 198 0.0 0.0 0.00 0.06 0.06 92 1018.7
20260831000526 67 198 0.0 0.0 0.00 0.06 0.06 92 1018.6
20260831000053 68 198 0.0 0.0 0.00 0.06 0.06 92 1018.6
20260830235545 68 198 0.0 0.0 0.00 0.06 0.06 92 1018.5
20260830235056 68 198 0.0 0.0 0.00 0.06 0.06 92 1018.5
20260830234511 68 198 0.0 0.0 0.00 0.06 0.06 92 1018.4
20260830234021 68 198 0.0 0.0 0.00 0.06 0.06 92 1018.4
20260830233519 68 198 0.0 0.0 0.00 0.06 0.06 92 1018.3
20260830233048 68 198 0.0 0.0 0.00 0.06 0.06 91 1018.3
20260830232536 69 198 0.0 0.0 0.00 0.06 0.06 92 1018.2
20260830232039 69 198 0.0 0.0 0.00 0.06 0.06 92 1018.2
20260830231533 69 198 0.0 0.0 0.00 0.06 0.06 92 1018.0
20260830231040 69 198 0.0 0.0 0.00 0.06 0.06 92 1017.9
20260830230549 69 198 0.0 0.0 0.00 0.06 0.06 92 1018.0
20260830230054 69 198 0.0 0.0 0.00 0.06 0.06 92 1018.0
20260830225541 69 198 0.0 0.0 0.00 0.06 0.06 91 1017.9
20260830225033 69 198 0.0 0.0 0.00 0.06 0.06 91 1017.8
20260830224518 69 198 0.0 0.0 0.00 0.06 0.06 91 1017.9
20260830224022 69 198 0.0 0.0 0.00 0.06 0.06 91 1017.9
20260830223558 69 198 0.0 0.0 0.00 0.06 0.06 92 1018.0
20260830223102 69 198 0.0 0.0 0.00 0.06 0.06 91 1018.1
20260830222509 69 198 0.0 0.0 0.01 0.06 0.06 91 1018.0
20260830222013 69 198 0.0 0.0 0.01 0.06 0.06 91 1017.9
20260830221524 69 198 0.0 0.0 0.01 0.06 0.06 91 1017.9
20260830221007 69 198 0.0 0.0 0.02 0.06 0.06 91 1018.0
20260830220522 69 198 0.0 0.0 0.02 0.06 0.06 91 1017.8
20260830220052 68 198 0.0 0.0 0.03 0.06 0.06 90 1017.7
20260830215509 68 198 0.0 0.0 0.03 0.06 0.06 90 1017.6
20260830215018 68 198 0.0 1.0 0.03 0.06 0.06 90 1017.5
20260830214521 68 198 0.0 3.0 0.03 0.06 0.06 89 1017.4
20260830214001 68 198 0.0 3.0 0.03 0.06 0.06 89 1017.4
20260830213509 68 196 0.0 2.0 0.03 0.06 0.06 90 1017.5
20260830213059 68 196 0.0 2.0 0.03 0.06 0.06 89 1017.5
20260830212507 68 196 0.0 2.0 0.03 0.05 0.05 89 1017.6
20260830212057 68 196 0.0 2.0 0.03 0.05 0.05 89 1017.6
20260830211510 68 196 0.0 4.0 0.03 0.05 0.05 89 1017.7
20260830211053 68 196 0.0 4.0 0.02 0.04 0.04 88 1017.8
20260830210520 68 196 0.0 4.0 0.02 0.04 0.04 88 1017.9
20260830210100 68 196 0.0 4.0 0.01 0.03 0.04 88 1017.9
20260830205509 68 196 1.0 4.0 0.01 0.03 0.03 88 1017.9
20260830205019 68 195 2.0 4.0 0.01 0.03 0.03 87 1018.1
20260830204523 68 210 1.0 5.0 0.01 0.03 0.03 87 1018.1
20260830204017 68 210 1.0 5.0 0.01 0.03 0.03 86 1018.3
20260830203511 68 228 0.0 3.0 0.01 0.03 0.03 86 1018.4
20260830203025 68 232 0.0 1.0 0.01 0.03 0.03 85 1018.5
20260830202531 68 232 0.0 0.0 0.00 0.02 0.02 84 1018.6
20260830202037 68 232 0.0 4.0 0.00 0.02 0.02 82 1018.6
20260830201556 68 232 1.0 5.0 0.00 0.02 0.02 80 1018.7
20260830201050 69 234 1.0 6.0 0.00 0.02 0.02 79 1018.7
20260830200533 69 231 2.0 10.0 0.00 0.02 0.02 78 1018.7
20260830200043 69 235 4.0 11.0 0.00 0.02 0.02 76 1018.7
20260830195519 70 360 5.0 11.0 0.00 0.02 0.02 79 1018.8
20260830195033 70 360 3.0 13.0 0.00 0.02 0.02 82 1018.8
20260830194539 70 236 4.0 13.0 0.00 0.02 0.02 83 1018.7
20260830194046 70 360 3.0 11.0 0.00 0.02 0.02 85 1018.7
20260830193533 71 252 2.0 6.0 0.00 0.02 0.02 86 1018.7
20260830193041 71 360 2.0 6.0 0.00 0.02 0.02 86 1018.7
20260830192544 71 226 3.0 6.0 0.00 0.02 0.02 86 1018.6
20260830192053 71 241 1.0 4.0 0.00 0.02 0.02 87 1018.7
20260830191621 71 360 2.0 4.0 0.00 0.02 0.02 87 1018.6
20260830191101 71 238 1.0 3.0 0.00 0.02 0.02 88 1018.6
20260830190507 71 236 1.0 4.0 0.00 0.02 0.02 88 1018.6
20260830190028 71 236 1.0 4.0 0.00 0.02 0.02 88 1018.6
20260830185527 71 217 0.0 3.0 0.00 0.02 0.02 88 1018.7
20260830185021 70 217 0.0 4.0 0.00 0.02 0.02 88 1018.8
20260830184527 70 216 1.0 4.0 0.00 0.02 0.02 88 1018.8
20260830184004 70 269 0.0 3.0 0.00 0.02 0.02 89 1018.9
20260830183523 70 269 0.0 3.0 0.00 0.02 0.02 89 1019.0
20260830183007 70 309 1.0 3.0 0.00 0.02 0.02 89 1019.1
20260830182506 70 319 0.0 3.0 0.00 0.02 0.02 89 1019.1
20260830182002 70 319 1.0 3.0 0.00 0.02 0.02 89 1019.1
20260830181544 70 325 0.0 0.0 0.00 0.02 0.02 90 1019.2
20260830181049 70 325 0.0 0.0 0.00 0.02 0.02 89 1019.2
20260830180530 70 325 0.0 0.0 0.00 0.02 0.02 89 1019.2
20260830180038 70 325 0.0 0.0 0.00 0.02 0.02 89 1019.2
20260830175538 69 325 0.0 1.0 0.01 0.02 0.02 89 1019.2
20260830175047 69 325 0.0 3.0 0.01 0.02 0.02 89 1019.3
20260830174555 70 325 1.0 3.0 0.01 0.02 0.02 89 1019.3
20260830174034 70 328 0.0 2.0 0.01 0.02 0.02 90 1019.3
20260830173521 69 328 0.0 3.0 0.02 0.02 0.02 90 1019.3
20260830173029 69 328 0.0 4.0 0.02 0.02 0.02 90 1019.4
20260830172506 69 328 1.0 4.0 0.02 0.02 0.02 89 1019.5
20260830172023 69 327 0.0 1.0 0.02 0.02 0.02 90 1019.4
20260830171525 69 327 0.0 3.0 0.02 0.02 0.02 90 1019.4
20260830171032 69 327 2.0 3.0 0.02 0.02 0.02 89 1019.4
20260830170541 70 327 0.0 2.0 0.02 0.02 0.02 90 1019.5
20260830170053 70 327 0.0 3.0 0.02 0.02 0.02 90 1019.4
20260830165558 70 327 1.0 4.0 0.01 0.01 0.01 89 1019.4
20260830165501 70 327 1.0 4.0 0.01 0.01 0.01 89 1019.4
20260830165105 70 327 2.0 4.0 0.01 0.01 0.01 89 1019.4
20260830164549 70 323 0.0 2.0 0.01 0.01 0.01 88 1019.4
20260830164053 70 323 0.0 2.0 0.01 0.01 0.01 88 1019.5
20260830163503 70 323 0.0 5.0 0.00 0.00 0.00 87 1019.5
20260830163018 70 322 1.0 5.0 0.00 0.00 0.00 87 1019.5
20260830162519 71 321 2.0 3.0 0.00 0.00 0.00 85 1019.4
20260830162100 71 234 0.0 0.0 0.00 0.00 0.00 85 1019.4
20260830161508 71 234 0.0 1.0 0.00 0.00 0.00 83 1019.3
20260830161014 72 234 0.0 2.0 0.00 0.00 0.00 82 1019.2
20260830160522 72 234 0.0 2.0 0.00 0.00 0.00 81 1019.2
20260830160037 72 234 0.0 3.0 0.00 0.00 0.00 79 1019.1
20260830155532 72 234 0.0 3.0 0.00 0.00 0.00 79 1019.3
20260830155038 72 234 0.0 3.0 0.00 0.00 0.00 77 1019.3
20260830154545 72 234 1.0 4.0 0.00 0.00 0.00 77 1019.4
20260830154050 72 234 1.0 4.0 0.00 0.00 0.00 76 1019.4
20260830153558 72 251 1.0 4.0 0.00 0.00 0.00 76 1019.4
20260830153016 72 244 1.0 5.0 0.00 0.00 0.00 75 1019.4
20260830152523 72 244 1.0 5.0 0.00 0.00 0.00 75 1019.4
20260830152037 71 219 1.0 5.0 0.00 0.00 0.00 75 1019.4
20260830151542 71 224 0.0 5.0 0.00 0.00 0.00 76 1019.4
20260830151042 71 219 0.0 4.0 0.00 0.00 0.00 76 1019.5
20260830150529 71 216 0.0 2.0 0.00 0.00 0.00 76 1019.5
20260830150019 71 217 1.0 4.0 0.00 0.00 0.00 75 1019.5
20260830145524 71 216 1.0 4.0 0.00 0.00 0.00 74 1019.4
20260830145026 71 221 1.0 3.0 0.00 0.00 0.00 74 1019.5
20260830144545 71 223 1.0 3.0 0.00 0.00 0.00 73 1019.5
20260830144046 71 223 1.0 4.0 0.00 0.00 0.00 73 1019.5
20260830143552 71 223 1.0 4.0 0.00 0.00 0.00 73 1019.4
20260830143043 71 206 1.0 3.0 0.00 0.00 0.00 73 1019.2
20260830142549 71 205 0.0 3.0 0.00 0.00 0.00 72 1019.1
20260830142054 71 207 1.0 3.0 0.00 0.00 0.00 72 1019.0
20260830141559 71 238 0.0 3.0 0.00 0.00 0.00 72 1019.0
20260830141008 71 237 1.0 3.0 0.00 0.00 0.00 71 1018.9
20260830140518 72 242 0.0 5.0 0.00 0.00 0.00 70 1018.8
20260830140030 72 242 1.0 5.0 0.00 0.00 0.00 70 1018.8
20260830135519 72 195 1.0 3.0 0.00 0.00 0.00 70 1018.7
20260830135020 72 218 1.0 3.0 0.00 0.00 0.00 70 1018.7
20260830134525 72 217 1.0 4.0 0.00 0.00 0.00 69 1018.7
20260830134036 72 215 1.0 4.0 0.00 0.00 0.00 68 1018.6
20260830133541 72 216 0.0 6.0 0.00 0.00 0.00 69 1018.6
20260830133101 72 190 2.0 6.0 0.00 0.00 0.00 68 1018.6
20260830132542 72 176 1.0 6.0 0.00 0.00 0.00 68 1018.6
20260830132050 72 173 1.0 6.0 0.00 0.00 0.00 67 1018.5
20260830131558 72 360 0.0 7.0 0.00 0.00 0.00 68 1018.4
20260830131007 72 360 3.0 7.0 0.00 0.00 0.00 66 1018.4
20260830130524 72 196 1.0 6.0 0.00 0.00 0.00 66 1018.3
20260830130109 72 182 1.0 10.0 0.00 0.00 0.00 66 1018.3
20260830125601 72 196 3.0 10.0 0.00 0.00 0.00 65 1018.2
20260830125503 72 360 3.0 10.0 0.00 0.00 0.00 65 1018.3
20260830125010 71 211 3.0 9.0 0.00 0.00 0.00 65 1018.3
20260830124522 71 183 2.0 10.0 0.00 0.00 0.00 65 1018.3
20260830124028 71 176 3.0 10.0 0.00 0.00 0.00 65 1018.3
20260830123514 71 184 1.0 6.0 0.00 0.00 0.00 66 1018.2
20260830123026 71 185 2.0 9.0 0.00 0.00 0.00 66 1018.2
20260830122526 71 189 2.0 9.0 0.00 0.00 0.00 65 1018.1
20260830122041 71 360 2.0 8.0 0.00 0.00 0.00 66 1018.1
20260830121548 71 190 2.0 8.0 0.00 0.00 0.00 66 1018.1
20260830121034 71 183 2.0 8.0 0.00 0.00 0.00 66 1018.1
20260830120510 70 148 2.0 8.0 0.00 0.00 0.00 67 1018.1
20260830120014 70 194 2.0 8.0 0.00 0.00 0.00 66 1018.0
20260830115552 70 198 2.0 6.0 0.00 0.00 0.00 66 1018.1
20260830115002 70 190 2.0 6.0 0.00 0.00 0.00 66 1018.1
20260830114514 70 175 2.0 7.0 0.00 0.00 0.00 66 1018.0
20260830114024 70 186 2.0 5.0 0.00 0.00 0.00 65 1018.1
20260830113534 71 135 2.0 6.0 0.00 0.00 0.00 65 1018.2
20260830113042 71 211 1.0 6.0 0.00 0.00 0.00 64 1018.3
20260830112550 71 160 2.0 6.0 0.00 0.00 0.00 64 1018.3
20260830112056 70 158 3.0 5.0 0.00 0.00 0.00 64 1018.2
20260830111600 70 177 1.0 9.0 0.00 0.00 0.00 64 1018.3
20260830111502 70 176 1.0 9.0 0.00 0.00 0.00 64 1018.2
20260830111003 70 180 2.0 9.0 0.00 0.00 0.00 64 1018.2
20260830110512 70 185 2.0 6.0 0.00 0.00 0.00 64 1018.1
20260830110014 70 202 2.0 6.0 0.00 0.00 0.00 64 1018.2
20260830105526 70 154 2.0 5.0 0.00 0.00 0.00 64 1018.2
20260830105002 70 188 2.0 5.0 0.00 0.00 0.00 64 1018.3
20260830104524 70 186 1.0 4.0 0.00 0.00 0.00 65 1018.4
20260830104024 70 194 1.0 5.0 0.00 0.00 0.00 64 1018.4
20260830103534 70 190 1.0 5.0 0.00 0.00 0.00 64 1018.4
20260830103038 70 198 2.0 6.0 0.00 0.00 0.00 64 1018.4
20260830102543 70 192 1.0 6.0 0.00 0.00 0.00 64 1018.5
20260830102048 70 193 1.0 6.0 0.00 0.00 0.00 64 1018.4
20260830101601 70 169 2.0 7.0 0.00 0.00 0.00 63 1018.4
20260830101044 70 192 1.0 10.0 0.00 0.00 0.00 63 1018.4
20260830100552 70 189 3.0 10.0 0.00 0.00 0.00 62 1018.4
20260830100056 70 194 1.0 5.0 0.00 0.00 0.00 62 1018.4
20260830095504 70 188 2.0 5.0 0.00 0.00 0.00 62 1018.3
20260830095006 70 190 2.0 8.0 0.00 0.00 0.00 62 1018.3
20260830094552 70 173 3.0 8.0 0.00 0.00 0.00 62 1018.4
20260830094053 70 198 2.0 8.0 0.00 0.00 0.00 62 1018.4
20260830093506 70 185 2.0 5.0 0.00 0.00 0.00 62 1018.4
20260830093002 70 170 2.0 6.0 0.00 0.00 0.00 61 1018.4
20260830092512 70 190 1.0 6.0 0.00 0.00 0.00 61 1018.5
20260830092022 70 153 2.0 6.0 0.00 0.00 0.00 62 1018.5
20260830091523 70 186 2.0 6.0 0.00 0.00 0.00 61 1018.5
20260830091011 70 199 2.0 8.0 0.00 0.00 0.00 61 1018.5
20260830090513 70 177 2.0 8.0 0.00 0.00 0.00 62 1018.5
20260830090005 70 169 2.0 10.0 0.00 0.00 0.00 61 1018.5
20260830085513 70 168 2.0 5.0 0.00 0.00 0.00 61 1018.6
20260830085030 70 189 2.0 7.0 0.00 0.00 0.00 61 1018.6
20260830084530 70 190 2.0 7.0 0.00 0.00 0.00 62 1018.6
20260830084036 70 175 1.0 5.0 0.00 0.00 0.00 61 1018.6
20260830083518 70 179 1.0 8.0 0.00 0.00 0.00 61 1018.6
20260830083028 70 205 2.0 8.0 0.00 0.00 0.00 61 1018.6
20260830082523 70 162 2.0 4.0 0.00 0.00 0.00 61 1018.7
20260830082006 70 187 2.0 8.0 0.00 0.00 0.00 61 1018.7
20260830081530 70 196 2.0 10.0 0.00 0.00 0.00 61 1018.7
20260830081101 70 184 2.0 10.0 0.00 0.00 0.00 61 1018.8
20260830080544 70 166 2.0 9.0 0.00 0.00 0.00 60 1018.8
20260830080010 70 186 2.0 6.0 0.00 0.00 0.00 60 1018.9
20260830075550 70 141 1.0 3.0 0.00 0.00 0.00 60 1018.9
20260830075103 70 192 1.0 5.0 0.00 0.00 0.00 60 1019.0
20260830074516 71 158 2.0 10.0 0.00 0.00 0.00 59 1019.0
20260830074049 71 171 4.0 10.0 0.00 0.00 0.00 59 1019.0
20260830073555 71 160 2.0 8.0 0.00 0.00 0.00 59 1019.1
20260830073101 71 163 3.0 7.0 0.00 0.00 0.00 59 1019.1
20260830072551 71 140 2.0 9.0 0.00 0.00 0.00 59 1019.0
20260830072003 71 360 2.0 8.0 0.00 0.00 0.00 59 1019.1
20260830071550 71 205 2.0 8.0 0.00 0.00 0.00 58 1019.1
20260830071053 71 163 3.0 8.0 0.00 0.00 0.00 58 1019.0
20260830070504 71 161 2.0 6.0 0.00 0.00 0.00 58 1019.0
20260830070004 71 173 3.0 6.0 0.00 0.00 0.00 57 1019.0
20260830065551 71 142 2.0 7.0 0.00 0.00 0.00 57 1019.0
20260830065033 71 136 3.0 7.0 0.00 0.00 0.00 57 1018.9
20260830064543 71 148 2.0 7.0 0.00 0.00 0.00 57 1019.0
20260830064051 71 179 2.0 4.0 0.00 0.00 0.00 57 1019.0
20260830063534 71 150 2.0 7.0 0.00 0.00 0.00 57 1019.1
20260830063022 71 180 3.0 7.0 0.00 0.00 0.00 57 1019.1
20260830062529 71 129 3.0 6.0 0.00 0.00 0.00 58 1019.1
20260830062035 71 157 3.0 6.0 0.00 0.00 0.00 57 1019.2
20260830061540 71 182 2.0 5.0 0.00 0.00 0.00 58 1019.3
20260830061051 71 130 2.0 5.0 0.00 0.00 0.00 58 1019.2
20260830060559 71 143 2.0 6.0 0.00 0.00 0.00 58 1019.2
20260830060051 71 159 3.0 6.0 0.00 0.00 0.00 59 1019.3
20260830055550 71 161 3.0 6.0 0.00 0.00 0.00 59 1019.4
20260830055056 71 148 2.0 6.0 0.00 0.00 0.00 59 1019.4
20260830054559 71 140 2.0 5.0 0.00 0.00 0.00 59 1019.3
20260830054501 71 137 2.0 5.0 0.00 0.00 0.00 59 1019.3
20260830054019 71 165 2.0 4.0 0.00 0.00 0.00 59 1019.3
20260830053525 71 176 2.0 4.0 0.00 0.00 0.00 59 1019.5
20260830053033 71 360 2.0 5.0 0.00 0.00 0.00 59 1019.5
20260830052519 71 162 2.0 5.0 0.00 0.00 0.00 58 1019.6
20260830052032 71 155 2.0 5.0 0.00 0.00 0.00 58 1019.6
20260830051520 71 162 3.0 5.0 0.00 0.00 0.00 58 1019.5
20260830051023 71 360 3.0 5.0 0.00 0.00 0.00 57 1019.4
20260830050532 71 159 2.0 6.0 0.00 0.00 0.00 57 1019.5
20260830050020 71 155 3.0 5.0 0.00 0.00 0.00 58 1019.5
20260830045525 71 166 2.0 4.0 0.00 0.00 0.00 58 1019.5
20260830045029 71 172 2.0 4.0 0.00 0.00 0.00 57 1019.5
20260830044507 72 176 2.0 7.0 0.00 0.00 0.00 57 1019.4
20260830044015 72 151 2.0 4.0 0.00 0.00 0.00 58 1019.4
20260830043521 72 167 2.0 6.0 0.00 0.00 0.00 57 1019.4
20260830043037 72 168 2.0 6.0 0.00 0.00 0.00 57 1019.4
20260830042545 72 140 3.0 7.0 0.00 0.00 0.00 57 1019.3
20260830042031 72 165 3.0 7.0 0.00 0.00 0.00 57 1019.3
20260830041553 72 148 2.0 5.0 0.00 0.00 0.00 57 1019.3
20260830041048 72 157 2.0 5.0 0.00 0.00 0.00 57 1019.2
20260830040523 72 163 2.0 5.0 0.00 0.00 0.00 57 1019.3
20260830040044 72 159 2.0 5.0 0.00 0.00 0.00 57 1019.3
20260830035520 72 153 1.0 5.0 0.00 0.00 0.00 57 1019.2
20260830035058 72 150 2.0 5.0 0.00 0.00 0.00 57 1019.2
20260830034506 72 150 2.0 5.0 0.00 0.00 0.00 57 1019.2
20260830034021 72 153 1.0 4.0 0.00 0.00 0.00 58 1019.2
20260830033523 72 157 2.0 5.0 0.00 0.00 0.00 58 1019.1
20260830033011 72 169 2.0 4.0 0.00 0.00 0.00 58 1019.2
20260830032519 72 181 2.0 4.0 0.00 0.00 0.00 58 1019.3
20260830032032 72 169 2.0 3.0 0.00 0.00 0.00 58 1019.3
20260830031518 72 179 1.0 3.0 0.00 0.00 0.00 59 1019.3
20260830031004 72 180 1.0 3.0 0.00 0.00 0.00 59 1019.3
20260830030518 72 180 1.0 5.0 0.00 0.00 0.00 59 1019.3
20260830030027 72 184 2.0 5.0 0.00 0.00 0.00 59 1019.3
20260830025523 72 360 2.0 5.0 0.00 0.00 0.00 59 1019.1
20260830025035 72 173 1.0 3.0 0.00 0.00 0.00 60 1019.0
20260830024556 71 181 0.0 3.0 0.00 0.00 0.00 60 1019.1
20260830024047 71 165 0.0 0.0 0.00 0.00 0.00 61 1019.1
20260830023553 71 168 0.0 0.0 0.00 0.00 0.00 61 1019.3
20260830023115 71 175 0.0 0.0 0.00 0.00 0.00 62 1019.4
20260830022518 71 172 0.0 0.0 0.00 0.00 0.00 63 1019.5